This demonstration page uses our WeatherBlox Daily Observations layout. Learn more.

Left ArrowRight Arrow

Hourly Observations for January 19, 2022

Temp ( °F °C ) Dew Point ( °F °C ) Humidity (%) Winds ( mph kmh ) Pressure ( in mb ) Visibility ( mi km ) Precip ( " mm )
12:52 am 00:52 Cloudy 24 -4.4 14 -10 65 65 NNW 22 35 30.13 1020 10 16 0.00 0.00
1:52 am 01:52 Cloudy 22 -5.6 12 -11.1 66 66 N 25 41 30.16 1021 10 16 0.00 0.00
2:52 am 02:52 Cloudy 20 -6.7 11 -11.7 68 68 N 23 37 30.21 1023 10 16 0.00 0.00
3:52 am 03:52 Cloudy 18 -7.8 7 -13.9 62 62 N 23 37 30.25 1024 10 16 0.00 0.00
4:52 am 04:52 Cloudy 16 -8.9 5 -15 62 62 NNW 22 35 30.28 1025 10 16 0.00 0.00
5:52 am 05:52 Cloudy 14 -10 3 -16.1 61 61 N 20 31 30.32 1027 10 16 0.00 0.00
6:52 am 06:52 Cloudy 12 -11.1 2 -16.7 64 64 N 21 33 30.36 1028 10 16 0.00 0.00
7:52 am 07:52 Mostly Cloudy 11 -11.7 1 -17.2 64 64 NNW 24 39 30.40 1030 10 16 0.00 0.00
8:52 am 08:52 Cloudy 11 -11.7 0 -17.8 61 61 NNW 23 37 30.42 1030 10 16 0.00 0.00
9:52 am 09:52 Mostly Cloudy 10 -12.2 -1 -18.3 61 61 N 24 39 30.48 1032 10 16 0.00 0.00
10:52 am 10:52 Mostly Cloudy 11 -11.7 0 -17.8 61 61 N 23 37 30.52 1033 10 16 0.00 0.00
11:52 am 11:52 Mostly Cloudy 12 -11.1 0 -17.8 58 58 NNW 26 43 30.52 1034 10 16 0.00 0.00
12:52 pm 12:52 Mostly Cloudy 13 -10.6 0 -17.8 56 56 N 25 41 30.51 1033 10 16 0.00 0.00
1:52 pm 13:52 Partly Cloudy 16 -8.9 2 -16.7 54 54 NNW 23 37 30.52 1033 10 16 0.00 0.00
2:52 pm 14:52 Partly Cloudy 16 -8.9 0 -17.8 49 49 NNW 25 41 30.53 1034 10 16 0.00 0.00
3:52 pm 15:52 Mostly Cloudy 15 -9.4 0 -17.8 51 51 N 23 37 30.56 1035 10 16 0.00 0.00
4:52 pm 16:52 Mostly Cloudy 14 -10 -1 -18.3 51 51 NNW 17 28 30.58 1036 10 16 0.00 0.00
5:52 pm 17:52 Mostly Cloudy 12 -11.1 -1 -18.3 56 56 NNW 18 30 30.63 1037 10 16 0.00 0.00
6:52 pm 18:52 Partly Cloudy 10 -12.2 -1 -18.3 61 61 NNW 15 24 30.66 1038 10 16 0.00 0.00
7:52 pm 19:52 Partly Cloudy 9 -12.8 -2 -18.9 61 61 N 12 19 30.69 1039 10 16 0.00 0.00
8:52 pm 20:52 Partly Cloudy 8 -13.3 -2 -18.9 63 63 NNW 14 22 30.71 1040 10 16 0.00 0.00
9:52 pm 21:52 Partly Cloudy 8 -13.3 -2 -18.9 63 63 N 9 15 30.73 1041 10 16 0.00 0.00
10:52 pm 22:52 Mostly Clear 5 -15 -3 -19.4 69 69 N 10 17 30.74 1041 10 16 0.00 0.00
11:52 pm 23:52 Mostly Clear 4 -15.6 -3 -19.4 73 73 N 12 19 30.75 1041 10 16 0.00 0.00

Powered by AerisWeather